Blackwell, OK

1:58 PM CDT on June 25, 2017 (GMT -0500)
Blackwell

Weather History for KBKN - December, 2013

Change the Weather History Date:

Friday, December 20, 2013

  Actual Average (KPNC) Record (KPNC)
Temperature  
Mean Temperature 38 °F -  
Max Temperature 53 °F 46 °F 67 °F (1949)
Min Temperature 23 °F 25 °F 10 °F (1951)
Degree Days  
Heating Degree Days 27    
Moisture  
Dew Point 21 °F    
Average Humidity 77    
Maximum Humidity 93    
Minimum Humidity 64    
Precipitation  
Precipitation 0.00 in - - ()
Sea Level Pressure  
Sea Level Pressure 29.89 in    
Wind  
Wind Speed 16 mph (NNW)    
Max Wind Speed 30 mph    
Max Gust Speed 38 mph    
Visibility 9 miles    
Events Rain    
Averages and records for this station are not official NWS values.
T = Trace of Precipitation, MM = Missing Value Source: NWS Daily Summary

Daily Weather History Graph

Daily Weather History Graph

Search for Another Location

Airport or City:

Trip Planner

Search our weather history database for the weather conditions in past years. The results will help you decide how hot, cold, wet, or windy it might be!

Date:

Astronomy

Dec. 20, 2013 Rise Set
Actual Time 7:37 AM CST 5:16 PM CST
Civil Twilight 7:08 AM CST 5:45 PM CST
Nautical Twilight 6:36 AM CST 6:17 PM CST
Astronomical Twilight 6:04 AM CST 6:49 PM CST
Moon 8:34 PM CST (12/20) 9:36 AM CST (12/20)
Length of Visible Light 10h 36m
Length of Day
9h 38m
Waning Gibbous, 90% of the Moon is Illuminated
Dec 20
Waning Gibbous
Dec 25
Last Quarter
Jan 1
New
Jan 7
First Quarter
Jan 15
Full

Hourly Weather History & Observations

Time (CST) Temp. Windchill Dew Point Humidity Pressure Visibility Wind Dir Wind Speed Gust Speed Precip Events Conditions
12:15 AM 51.8 °F - 48.2 °F 88% 29.65 in 10.0 mi NW 12.7 mph - N/A   Scattered Clouds
12:35 AM 53.6 °F - 50.0 °F 88% 29.65 in 10.0 mi WNW 9.2 mph - N/A   Mostly Cloudy
12:55 AM 48.2 °F - 44.6 °F 87% 29.67 in 10.0 mi NNW 21.9 mph 25.3 mph N/A   Overcast
1:15 AM 39.2 °F 28.3 °F 35.6 °F 87% 29.68 in 10.0 mi NNW 25.3 mph 31.1 mph N/A   Overcast
1:35 AM 37.4 °F 26.1 °F 32.0 °F 81% 29.69 in 10.0 mi North 24.2 mph 32.2 mph N/A   Overcast
1:55 AM 35.6 °F 24.5 °F 32.0 °F 87% 29.69 in 10.0 mi North 20.7 mph - N/A   Mostly Cloudy
2:15 AM 35.6 °F 24.0 °F 28.4 °F 75% 29.73 in 10.0 mi NNW 23.0 mph 31.1 mph N/A   Overcast
2:35 AM 32.0 °F 17.6 °F 26.6 °F 80% 29.76 in 10.0 mi NNW 29.9 mph 38.0 mph N/A   Overcast
2:55 AM 32.0 °F 18.4 °F 24.8 °F 75% 29.77 in 10.0 mi NNW 26.5 mph 36.8 mph N/A   Overcast
3:15 AM 28.4 °F 13.0 °F 23.0 °F 80% 29.81 in 8.0 mi NNW 28.8 mph 34.5 mph N/A   Overcast
3:35 AM 26.6 °F 10.8 °F 23.0 °F 86% 29.83 in 7.0 mi NNW 27.6 mph 35.7 mph N/A   Overcast
3:55 AM 26.6 °F 12.7 °F 23.0 °F 86% 29.85 in 4.0 mi NNW 20.7 mph 38.0 mph N/A   Overcast
4:15 AM 26.6 °F 11.7 °F 23.0 °F 86% 29.86 in 4.0 mi NNW 24.2 mph 31.1 mph N/A   Overcast
4:35 AM 24.8 °F 10.0 °F 23.0 °F 93% 29.87 in 5.0 mi NNW 21.9 mph 29.9 mph N/A   Overcast
4:55 AM 24.8 °F 9.3 °F 23.0 °F 93% 29.88 in 6.0 mi NNW 24.2 mph 28.8 mph N/A   Overcast
5:15 AM 24.8 °F 9.6 °F 23.0 °F 93% 29.89 in 9.0 mi NNW 23.0 mph 32.2 mph N/A   Overcast
5:35 AM 24.8 °F 10.3 °F 21.2 °F 86% 29.89 in 10.0 mi NNW 20.7 mph 26.5 mph N/A   Overcast
5:55 AM 24.8 °F 10.3 °F 19.4 °F 80% 29.91 in 10.0 mi NNW 20.7 mph 25.3 mph N/A   Overcast
6:15 AM 23.0 °F 8.7 °F 17.6 °F 80% 29.91 in 10.0 mi NNW 18.4 mph 28.8 mph N/A   Overcast
6:35 AM 23.0 °F 8.3 °F 17.6 °F 80% 29.92 in 10.0 mi NNW 19.6 mph - N/A   Overcast
6:55 AM 23.0 °F 8.3 °F 17.6 °F 80% 29.94 in 10.0 mi NNW 19.6 mph 25.3 mph N/A   Overcast
7:15 AM 23.0 °F 8.3 °F 17.6 °F 80% 29.95 in 10.0 mi NNW 19.6 mph 23.0 mph N/A   Overcast
7:35 AM 23.0 °F 8.7 °F 15.8 °F 74% 29.96 in 10.0 mi NNW 18.4 mph - N/A   Overcast
7:55 AM 23.0 °F 9.6 °F 15.8 °F 74% 29.97 in 10.0 mi NNW 16.1 mph - N/A   Overcast
8:15 AM 23.0 °F 9.6 °F 15.8 °F 74% 29.97 in 10.0 mi North 16.1 mph 19.6 mph N/A   Overcast
8:35 AM 23.0 °F 10.1 °F 15.8 °F 74% 29.97 in 10.0 mi NNW 15.0 mph - N/A   Overcast
8:55 AM 23.0 °F 9.6 °F 14.0 °F 68% 29.98 in 10.0 mi NNW 16.1 mph - N/A   Overcast
9:15 AM 23.0 °F 10.1 °F 14.0 °F 68% 29.98 in 10.0 mi NNW 15.0 mph 20.7 mph N/A   Overcast
9:35 AM 23.0 °F 8.7 °F 14.0 °F 68% 29.99 in 10.0 mi NNW 18.4 mph - N/A   Overcast
9:55 AM 23.0 °F 9.6 °F 15.8 °F 74% 30.00 in 10.0 mi NW 16.1 mph - N/A   Overcast
10:15 AM 23.0 °F 9.6 °F 14.0 °F 68% 30.00 in 10.0 mi NNW 16.1 mph - N/A   Overcast
10:35 AM 23.0 °F 10.1 °F 14.0 °F 68% 30.00 in 10.0 mi NNW 15.0 mph - N/A   Overcast
10:55 AM 24.8 °F 14.0 °F 14.0 °F 64% 30.01 in 10.0 mi North 11.5 mph - N/A   Overcast
11:15 AM 23.0 °F 10.6 °F 15.8 °F 74% 30.01 in 9.0 mi NNW 13.8 mph - N/A   Overcast
11:35 AM 23.0 °F 10.6 °F 15.8 °F 74% 30.01 in 10.0 mi NW 13.8 mph 20.7 mph N/A   Overcast
11:55 AM 23.0 °F 11.7 °F 15.8 °F 74% 30.00 in 10.0 mi NW 11.5 mph - N/A   Overcast
12:15 PM 23.0 °F 11.1 °F 15.8 °F 74% 29.98 in 10.0 mi North 12.7 mph - N/A   Overcast
12:35 PM 24.8 °F 12.9 °F 15.8 °F 69% 29.96 in 9.0 mi NNW 13.8 mph 18.4 mph N/A   Overcast
12:55 PM 24.8 °F 12.9 °F 15.8 °F 69% 29.95 in 10.0 mi NNW 13.8 mph - N/A   Overcast
1:15 PM 24.8 °F 13.4 °F 15.8 °F 69% 29.96 in 10.0 mi NNW 12.7 mph - N/A   Overcast
1:35 PM 24.8 °F 14.0 °F 17.6 °F 74% 29.95 in 9.0 mi NW 11.5 mph - N/A   Overcast
1:55 PM 24.8 °F 13.4 °F 17.6 °F 74% 29.93 in 9.0 mi NNW 12.7 mph - N/A   Overcast
2:15 PM 24.8 °F 14.0 °F 17.6 °F 74% 29.93 in 9.0 mi NNW 11.5 mph - N/A   Overcast
2:35 PM 26.6 °F 17.5 °F 17.6 °F 69% 29.93 in 9.0 mi NNW 9.2 mph - N/A   Overcast
2:55 PM 26.6 °F 17.5 °F 17.6 °F 69% 29.92 in 10.0 mi North 9.2 mph - N/A   Scattered Clouds
3:15 PM 26.6 °F 18.2 °F 17.6 °F 69% 29.94 in 10.0 mi NW 8.1 mph - N/A   Partly Cloudy
3:35 PM 26.6 °F 18.2 °F 17.6 °F 69% 29.96 in 10.0 mi WNW 8.1 mph - N/A   Mostly Cloudy
3:55 PM 26.6 °F 16.8 °F 17.6 °F 69% 29.93 in 10.0 mi NW 10.4 mph - N/A   Mostly Cloudy
4:15 PM 26.6 °F 16.2 °F 17.6 °F 69% 29.93 in 10.0 mi NNW 11.5 mph - N/A   Mostly Cloudy
4:35 PM 26.6 °F 16.8 °F 17.6 °F 69% 29.92 in 10.0 mi North 10.4 mph - N/A   Partly Cloudy
4:55 PM 26.6 °F 16.2 °F 17.6 °F 69% 29.91 in 10.0 mi North 11.5 mph - N/A   Partly Cloudy
5:15 PM 26.6 °F 17.5 °F 17.6 °F 69% 29.89 in 10.0 mi North 9.2 mph - N/A   Partly Cloudy
5:35 PM 26.6 °F 16.8 °F 17.6 °F 69% 29.90 in 10.0 mi North 10.4 mph - N/A   Mostly Cloudy
5:55 PM 26.6 °F 17.5 °F 17.6 °F 69% 29.91 in 10.0 mi NNE 9.2 mph - N/A   Overcast
6:15 PM 26.6 °F 18.2 °F 17.6 °F 69% 29.91 in 10.0 mi North 8.1 mph - N/A   Overcast
6:35 PM 26.6 °F 17.5 °F 17.6 °F 69% 29.91 in 10.0 mi NNE 9.2 mph - N/A   Overcast
6:55 PM 26.6 °F 18.2 °F 17.6 °F 69% 29.91 in 10.0 mi NE 8.1 mph - N/A   Overcast
7:15 PM 26.6 °F 21.2 °F 17.6 °F 69% 29.91 in 10.0 mi NE 4.6 mph - N/A   Overcast
7:35 PM 26.6 °F 16.8 °F 17.6 °F 69% 29.89 in 10.0 mi ENE 10.4 mph - N/A Rain Light Freezing Rain
7:55 PM 26.6 °F 19.1 °F 19.4 °F 74% 29.89 in 9.0 mi NE 6.9 mph - N/A Rain Light Freezing Rain
8:15 PM 26.6 °F 21.2 °F 19.4 °F 74% 29.90 in 7.0 mi NNE 4.6 mph - N/A Rain Light Freezing Rain
8:35 PM 26.6 °F 13.8 °F 23.0 °F 86% 29.83 in 2.5 mi East 17.3 mph - N/A Rain Light Freezing Rain
8:55 PM 26.6 °F 17.5 °F 23.0 °F 86% 29.89 in 8.0 mi North 9.2 mph - N/A Rain Light Freezing Rain
9:15 PM 26.6 °F 19.1 °F 21.2 °F 80% 29.89 in 9.0 mi North 6.9 mph - N/A Rain Light Freezing Rain
9:35 PM 26.6 °F 17.5 °F 21.2 °F 80% 29.90 in 9.0 mi North 9.2 mph - N/A   Overcast
9:55 PM 26.6 °F 19.1 °F 21.2 °F 80% 29.92 in 7.0 mi North 6.9 mph - N/A Rain Light Freezing Rain
10:15 PM 26.6 °F 20.0 °F 21.2 °F 80% 29.89 in 7.0 mi NNE 5.8 mph - N/A Rain Light Freezing Rain
10:35 PM 26.6 °F 17.5 °F 21.2 °F 80% 29.87 in 7.0 mi NNE 9.2 mph - N/A Rain Light Freezing Rain
10:55 PM 26.6 °F 15.7 °F 23.0 °F 86% 29.89 in 5.0 mi North 12.7 mph - N/A Rain Light Freezing Rain
11:15 PM 26.6 °F 15.2 °F 23.0 °F 86% 29.87 in 4.0 mi North 13.8 mph - N/A Rain Light Freezing Rain
11:35 PM 24.8 °F 13.4 °F 21.2 °F 86% 29.86 in 9.0 mi North 12.7 mph - N/A   Overcast
11:55 PM 24.8 °F 12.4 °F 21.2 °F 86% 29.84 in 8.0 mi NNW 15.0 mph - N/A   Overcast